RH
23 26 28 30 31 32 32 31 32 33 35 36 38 39 40 41 42 43 43 44 44 43 40 34 27 21 17 15 14 13 12 11 11 11 15 14 15 17 16 15 13 12 11 10 10 12 13 12 12 13 13 13 13 13 14 13 12 11 10 9 10 9 10 10 10 11 12 16 16 14 14 14 12 11 10 13 12 9 9 10 12 16 18 19 25 33 35 40
22 24 25 25 26 27 27 27 27 28 30 31 33 35 37 39 39 41 42 43 43 44 42 38 34 27 21 18 16 15 14 13 15 13 11 11 15 16 16 16 13 12 11 11 12 13 12 11 11 12 12 13 14 14 14 14 13 12 10 9 9 8 9 10 10 9 10 14 15 15 17 17 13 11 11 18 21 15 14 13 15 23 26 26 27 29 33 39
27 27 25 22 22 22 21 21 21 22 23 24 27 29 32 35 36 38 40 42 43 44 43 41 38 33 26 21 18 17 18 19 21 17 11 10 12 13 14 14 12 11 11 11 12 13 13 12 13 12 12 14 15 16 15 15 15 13 11 10 9 8 8 9 11 9 10 14 16 17 18 16 12 11 12 18 23 18 18 19 18 26 29 28 30 31 34 37
36 35 32 28 27 28 25 22 21 20 20 20 21 23 25 28 32 34 37 39 41 42 44 43 40 38 32 26 21 20 23 25 22 18 14 12 11 11 12 12 12 11 10 11 12 13 13 14 15 14 14 14 14 14 14 14 15 15 12 11 10 9 9 9 10 10 13 14 14 15 16 14 12 12 10 15 22 19 21 25 24 31 33 31 32 33 36 36
40 40 38 37 37 37 36 33 30 26 25 24 22 22 21 23 26 30 33 35 37 40 43 43 41 40 37 31 25 24 29 26 21 20 18 16 14 12 11 11 12 10 10 11 12 14 13 13 16 17 15 14 13 13 13 13 14 16 14 12 10 10 11 10 10 12 13 12 11 12 12 12 11 11 11 13 19 19 23 30 31 35 37 35 35 35 37 36
38 39 40 40 40 40 40 40 39 35 33 31 27 26 24 23 23 26 30 32 34 37 40 41 40 40 40 36 29 30 34 28 24 25 21 19 18 14 12 11 11 11 10 11 12 13 13 13 14 17 16 15 14 12 12 13 14 15 14 13 11 10 11 11 12 13 13 12 12 11 9 10 10 10 12 13 13 14 21 29 36 41 39 36 36 37 38 37
37 37 36 36 37 37 37 39 40 39 38 36 33 31 29 26 25 25 27 30 33 35 37 40 39 39 41 39 33 33 34 28 26 26 22 21 19 16 14 12 12 11 11 12 12 13 13 12 13 15 17 16 15 13 13 14 15 15 13 13 13 11 10 11 13 14 14 14 12 11 9 9 9 9 11 12 11 11 16 26 37 42 41 40 39 38 39 39
37 37 35 34 32 32 33 34 36 38 38 37 36 36 33 29 27 26 26 29 32 34 36 38 38 39 41 40 38 36 32 28 27 25 23 21 19 19 17 14 14 12 12 13 11 12 12 12 13 14 16 17 17 14 14 16 16 15 14 13 14 13 11 11 13 14 15 13 11 11 9 8 8 10 11 10 12 12 14 23 33 43 46 46 45 40 40 39
32 33 33 32 31 32 32 32 32 34 36 37 37 37 36 33 29 27 26 28 31 34 36 38 38 39 40 41 42 38 32 29 30 29 25 22 22 21 19 17 17 16 15 14 12 11 12 12 13 14 15 16 17 16 15 16 16 15 14 13 13 14 14 13 13 14 14 12 11 10 9 8 8 9 10 10 12 13 17 24 32 45 47 43 45 41 38 39
29 28 27 27 28 29 29 29 30 32 35 36 37 36 36 34 31 28 27 26 29 33 36 39 40 39 41 42 40 37 32 30 35 35 28 23 23 22 20 18 21 22 18 14 13 11 11 12 13 14 14 15 15 16 16 16 15 15 15 14 13 13 15 16 14 14 14 12 10 10 9 8 9 9 10 9 10 11 19 29 35 48 48 40 44 41 38 41
33 30 28 28 27 27 26 26 28 32 33 34 37 37 37 36 33 29 28 26 27 32 36 38 41 42 43 40 35 34 33 33 37 36 29 26 24 22 21 19 21 25 21 17 14 12 11 12 14 15 14 14 14 16 17 17 16 16 16 16 15 13 13 14 15 14 13 12 10 10 9 9 9 9 9 9 11 14 21 31 38 49 50 43 43 41 40 45
36 35 35 35 33 31 31 29 29 32 33 33 36 39 39 38 36 31 28 27 26 29 34 37 40 43 44 40 35 34 35 35 36 34 30 28 26 23 22 19 19 21 22 20 16 13 12 12 15 15 14 14 14 16 17 17 16 16 17 17 18 16 13 12 14 13 12 11 10 10 10 9 9 8 9 9 13 21 24 30 38 48 51 42 39 40 41 46
37 36 36 38 37 36 35 34 32 31 32 32 33 36 39 40 39 35 31 29 26 26 32 36 40 42 43 40 36 37 37 36 35 33 31 31 28 25 23 21 20 20 20 20 19 17 13 12 15 15 15 15 15 16 16 17 16 16 17 18 19 18 15 13 12 12 12 11 11 12 11 10 9 8 10 11 17 30 33 33 40 49 52 43 37 39 43 47
37 36 35 36 37 37 38 38 35 32 31 30 30 33 37 39 40 37 33 31 27 26 29 34 38 41 43 38 36 38 37 35 35 34 32 32 29 26 24 22 21 20 19 19 20 22 18 15 16 16 15 15 17 17 15 17 17 16 17 18 18 18 17 14 12 11 11 11 11 12 13 11 10 9 12 15 19 32 38 38 41 47 50 44 37 38 46 49
36 35 35 34 34 36 39 40 39 36 32 29 29 31 35 37 38 36 35 32 30 26 26 31 37 40 41 35 34 36 35 33 34 33 32 32 30 26 24 22 21 21 19 18 18 21 22 18 17 17 15 15 17 18 16 16 16 16 17 17 17 16 16 15 13 12 11 12 11 12 12 10 12 14 16 17 15 22 31 34 40 47 47 44 40 40 48 52
35 35 35 32 31 35 38 39 40 40 35 31 30 29 31 33 33 34 34 33 31 27 27 32 36 41 44 36 32 34 33 33 33 33 32 32 30 27 25 23 22 22 20 19 18 19 22 21 17 16 15 15 16 17 18 16 16 16 15 16 16 16 16 14 14 13 12 13 12 12 11 11 19 24 25 26 20 18 24 30 39 49 51 50 49 48 51 58
34 35 33 32 32 34 37 38 39 39 37 32 28 26 26 29 31 32 33 33 32 30 32 35 36 45 48 39 34 33 32 33 33 33 34 33 31 28 26 25 24 23 22 20 18 18 22 22 18 16 16 16 15 16 19 19 18 16 15 15 15 16 16 13 14 14 14 13 13 12 9 15 27 30 31 36 31 25 27 33 38 51 62 63 63 60 57 63
35 35 35 34 34 34 35 37 38 38 37 32 27 24 22 23 27 31 33 32 32 34 36 35 41 50 49 41 35 31 31 35 35 33 34 33 31 29 26 27 27 26 25 23 20 20 22 21 17 17 16 16 16 16 18 19 18 17 16 17 15 15 15 13 13 16 16 13 13 13 9 20 32 30 32 36 36 35 34 34 36 53 72 71 67 66 63 67
38 39 38 36 36 33 33 36 37 38 37 33 28 26 25 26 29 32 35 34 33 35 34 33 38 40 39 39 35 30 34 41 41 37 35 34 31 29 26 28 30 28 27 28 25 22 22 20 18 16 16 16 16 16 17 18 18 17 16 16 15 14 14 12 14 17 18 14 13 13 11 21 32 30 31 37 41 41 39 40 44 57 73 70 64 64 65 66
40 39 39 37 35 35 34 36 38 38 38 37 36 36 33 34 36 37 40 41 37 34 31 33 38 34 30 35 39 37 38 43 45 40 36 35 32 29 27 29 31 29 29 30 27 23 21 20 17 16 16 16 16 16 17 17 17 17 16 17 15 14 14 14 14 17 19 17 14 13 11 17 29 28 26 34 40 40 39 44 51 57 68 70 65 62 65 64
40 39 39 36 33 37 39 39 41 41 39 38 39 41 37 33 36 43 48 49 48 47 41 37 40 38 29 32 39 40 41 41 42 40 36 35 35 32 29 30 31 29 30 31 28 24 21 20 18 17 17 16 15 16 17 16 16 17 18 20 18 13 15 17 15 16 19 21 17 13 11 13 23 27 25 31 36 36 38 42 50 59 64 66 65 62 67 69
41 40 40 36 32 38 44 45 44 41 38 36 35 37 34 30 34 46 54 53 54 57 55 47 44 40 29 30 40 42 44 44 41 41 39 36 37 35 31 31 30 29 31 30 27 24 21 20 19 17 17 16 16 16 16 16 15 16 18 22 22 14 15 19 18 15 17 23 21 15 13 13 19 25 24 28 31 34 39 41 50 63 63 58 60 60 68 73
42 40 41 37 32 38 46 45 40 37 35 35 37 39 39 37 38 48 57 58 56 56 60 55 50 44 28 26 40 45 46 47 43 42 40 37 36 35 33 32 30 30 31 30 26 23 21 20 19 19 17 17 18 18 17 17 15 16 16 21 25 18 16 19 18 17 18 22 21 17 15 12 21 32 31 29 33 35 40 43 51 65 65 58 55 60 70 74
43 42 42 38 35 38 42 38 35 38 41 45 49 47 47 47 45 51 58 60 57 54 56 53 50 48 29 21 36 44 45 48 46 43 40 37 36 35 33 31 30 29 29 29 26 24 22 19 19 19 19 18 19 19 18 17 16 16 16 20 26 22 18 18 18 19 21 21 17 17 19 14 21 40 41 35 38 40 41 44 53 64 68 62 55 61 72 73
44 44 42 38 38 38 38 39 44 53 58 63 65 59 55 56 60 64 61 58 55 50 51 50 47 45 32 23 30 38 44 46 46 45 41 38 35 34 33 31 31 29 28 28 27 26 24 21 19 19 20 19 19 20 18 17 17 16 16 18 24 25 19 17 19 21 23 23 17 16 21 20 25 40 45 39 39 44 46 46 52 62 65 59 55 63 72 72
47 45 44 41 39 40 41 47 58 67 73 76 76 76 75 74 79 80 69 65 59 44 43 47 44 41 34 25 25 36 45 42 41 45 44 40 36 34 34 32 30 29 30 30 29 29 26 23 21 20 22 22 20 20 18 17 17 17 17 17 22 25 20 17 20 22 24 25 20 16 17 22 30 42 49 47 41 43 47 47 52 64 66 62 63 67 69 66
51 48 47 44 41 43 48 53 62 72 83 85 81 84 84 78 81 82 77 77 63 40 36 40 40 39 33 24 23 36 42 34 35 44 44 41 39 36 35 33 31 30 33 34 32 29 26 24 23 21 24 25 22 20 17 16 17 18 18 18 19 21 20 19 18 19 25 25 21 17 14 17 28 43 52 50 45 42 45 50 58 67 72 73 74 71 65 62
55 50 50 48 42 46 52 55 65 77 87 88 83 83 82 78 81 82 82 78 62 47 41 38 38 39 35 29 24 27 33 32 34 40 41 42 41 39 37 35 33 32 33 35 32 29 26 26 25 23 24 25 23 20 17 17 17 18 19 18 19 18 18 21 20 19 25 29 24 17 14 13 24 47 56 46 43 44 44 51 61 68 73 76 75 70 67 65
57 52 54 50 39 47 61 65 73 82 85 86 85 83 79 81 83 82 84 75 61 61 57 47 42 40 37 34 27 27 32 32 33 35 39 43 42 39 38 37 36 35 35 34 31 29 28 26 25 24 24 23 22 20 18 18 17 17 19 18 18 17 17 22 23 21 24 29 26 19 16 12 17 43 60 49 43 47 44 46 55 62 65 67 67 69 74 73
58 54 56 53 40 48 68 77 81 83 80 79 78 76 75 81 81 80 82 72 65 75 73 59 50 44 42 40 34 31 31 32 36 40 41 42 42 39 40 41 39 38 37 35 33 30 28 27 26 24 23 22 21 20 18 18 16 17 21 21 18 17 20 23 22 21 26 27 23 20 19 16 14 27 46 46 39 43 48 48 53 58 58 61 66 73 80 78
59 54 55 57 50 52 63 73 78 78 75 71 69 70 74 76 77 78 78 71 74 85 82 67 56 50 49 48 39 30 30 37 43 43 41 41 42 40 41 43 40 39 39 36 34 31 30 29 26 23 22 21 21 19 18 17 16 16 22 24 22 20 22 25 25 26 29 24 20 20 20 20 19 18 28 38 37 41 50 50 51 53 56 60 66 72 77 75
60 54 52 57 55 53 61 67 67 67 67 64 64 69 73 75 75 74 71 74 84 91 89 81 70 58 52 50 42 31 33 43 44 40 40 40 42 40 39 39 37 36 37 35 32 32 33 29 25 24 22 21 21 19 18 18 16 16 19 23 26 26 25 27 29 27 23 20 20 23 21 20 23 20 22 32 38 44 50 49 47 49 54 59 61 63 64 66
63 58 52 57 58 56 63 69 69 67 62 61 66 71 76 81 78 72 70 79 89 91 91 92 83 71 62 56 47 37 37 44 43 39 38 39 43 43 40 38 36 34 34 35 33 34 38 34 29 28 23 20 20 18 18 17 15 16 18 21 27 31 30 29 29 25 21 20 20 23 23 22 25 26 23 26 33 41 46 48 47 49 55 56 57 61 62 62
66 65 57 58 63 62 62 68 74 75 69 69 73 76 83 84 77 76 80 85 90 87 87 90 87 80 71 62 52 42 40 44 42 38 39 42 47 48 45 42 39 35 34 37 38 37 40 37 31 28 23 21 20 18 18 17 14 16 19 23 29 33 32 27 25 24 23 20 18 22 27 26 25 27 25 23 29 36 43 48 50 49 53 54 55 60 61 60
63 67 66 64 67 67 65 66 71 75 77 79 79 82 88 83 74 79 85 86 88 86 83 85 87 84 72 61 53 43 40 43 40 36 39 43 44 45 45 42 39 36 37 42 42 38 37 35 31 30 27 24 21 19 21 19 15 17 22 25 27 31 32 27 22 24 27 24 20 22 27 25 24 28 26 23 27 32 38 48 52 50 49 50 51 54 55 54
62 69 72 71 69 67 67 67 69 71 77 83 86 88 89 83 79 82 86 87 88 85 83 84 86 85 74 62 55 45 39 43 41 37 39 41 41 42 42 42 40 37 40 44 41 37 37 37 37 36 30 26 22 20 22 21 16 19 22 21 20 24 30 30 26 25 29 30 24 21 24 23 23 28 28 25 29 32 33 40 48 50 49 47 47 50 53 52
68 72 72 70 67 66 66 68 70 71 75 83 87 87 85 84 84 84 82 83 84 83 86 89 87 81 70 62 58 47 40 46 46 39 39 41 43 45 44 45 42 37 41 45 42 39 42 44 42 37 31 26 21 19 22 22 18 21 20 16 19 22 25 31 33 30 29 31 28 22 22 23 22 26 29 27 30 33 31 34 42 46 47 48 49 53 56 54
72 75 71 65 63 66 68 69 71 75 81 87 87 84 84 87 88 86 81 78 81 85 89 91 89 80 67 58 56 48 44 51 48 39 40 42 43 44 44 45 42 38 41 44 45 44 45 47 45 39 32 27 20 20 27 26 21 22 20 16 19 23 24 28 35 36 31 31 31 25 23 24 22 24 28 28 31 35 36 37 41 44 44 46 50 52 54 55
77 78 73 65 61 64 68 70 73 80 88 90 88 87 89 89 88 87 83 80 82 86 89 90 89 84 72 59 52 48 50 53 47 41 43 42 42 43 42 43 42 40 42 44 45 45 44 47 47 40 33 28 22 20 26 27 23 24 24 18 17 22 24 26 32 35 33 32 32 28 27 27 24 23 27 30 31 34 40 41 40 43 44 44 46 47 50 53
80 77 75 69 63 64 67 72 78 85 89 87 84 87 90 89 86 83 83 81 80 83 86 87 88 88 80 66 54 47 52 56 48 45 45 41 42 43 42 43 41 40 43 44 46 44 43 47 47 42 37 30 24 20 22 26 23 23 26 21 18 21 23 26 29 31 33 35 33 30 30 31 29 26 27 30 30 29 34 41 40 39 39 40 41 44 47 49
85 82 82 79 75 72 72 76 80 83 86 85 85 88 87 85 83 80 79 78 77 80 83 83 84 86 81 72 60 47 50 56 50 48 48 44 45 45 42 42 41 41 43 45 46 44 43 46 47 43 37 29 25 21 23 28 24 20 23 23 21 22 23 26 28 27 30 35 34 31 30 31 32 29 27 29 31 28 28 33 39 39 37 36 37 38 41 44
91 88 88 88 86 84 84 84 82 84 88 88 87 87 85 84 82 80 78 77 76 79 82 80 80 81 76 69 62 50 48 54 51 49 50 47 46 45 40 40 40 40 43 44 45 44 44 47 48 43 36 30 28 24 24 31 28 20 20 22 22 22 23 26 28 28 30 32 34 32 30 31 33 31 31 32 31 30 30 31 37 42 41 38 38 38 41 46
93 90 91 91 92 92 92 88 82 86 91 89 87 86 84 83 81 78 78 79 79 81 83 82 80 79 72 64 61 53 49 52 51 48 49 48 48 45 40 39 40 41 43 44 44 44 45 48 48 44 38 34 31 26 24 30 30 22 19 20 21 21 24 27 29 32 33 32 33 34 33 35 35 32 34 35 31 31 34 35 40 47 48 45 44 43 45 50
96 95 94 94 95 95 95 90 86 88 90 89 89 86 82 80 79 79 77 77 81 84 84 82 80 78 69 59 57 53 48 50 51 49 49 48 48 46 40 40 41 42 43 43 44 45 45 48 48 44 42 40 38 30 25 25 25 22 21 21 21 21 24 28 30 34 36 34 32 31 33 37 37 33 33 33 31 34 36 39 46 52 51 49 49 48 49 52
97 97 95 95 96 97 96 94 94 95 91 91 92 86 82 79 77 78 76 74 78 82 83 81 78 73 64 57 58 54 47 48 51 51 50 49 48 44 40 41 41 41 42 43 44 44 44 48 48 43 41 39 36 30 23 21 21 21 22 22 21 22 25 28 31 33 35 34 30 28 34 41 39 36 36 33 34 39 42 44 51 56 51 47 50 51 50 50
97 98 96 96 96 97 97 97 99 99 96 96 94 87 83 81 77 75 73 72 75 79 82 79 73 67 62 60 61 57 49 49 53 53 51 50 48 43 40 41 40 40 42 43 44 44 44 47 45 40 38 33 30 29 23 20 20 21 24 25 22 22 27 29 33 34 33 34 32 28 35 44 42 37 37 36 36 44 51 53 55 57 52 47 50 54 52 49
97 99 98 97 97 98 99 99 100 100 99 99 95 91 89 87 81 74 70 71 76 79 79 76 72 70 65 62 61 56 53 54 56 55 53 52 48 43 42 41 40 42 44 45 46 44 46 48 43 39 39 34 32 33 26 20 20 21 28 31 24 22 28 31 33 34 33 35 35 32 36 45 45 39 36 36 38 46 58 64 63 60 56 54 55 57 57 57
97 99 98 98 99 98 98 99 99 100 99 98 95 95 94 89 82 74 70 73 75 76 76 73 71 70 65 62 62 58 56 58 58 55 54 53 48 44 44 43 43 45 45 45 47 45 45 47 41 39 42 37 33 34 29 23 21 22 29 33 26 22 28 33 34 33 34 36 35 34 36 39 39 37 34 34 40 47 54 59 62 62 59 58 58 58 59 62
95 95 96 98 99 99 98 98 99 99 99 97 93 91 90 87 79 70 70 75 76 75 77 75 71 69 64 63 62 59 58 59 59 56 53 51 49 46 44 44 44 45 45 47 47 44 44 44 39 39 43 39 34 34 34 29 24 24 29 31 28 24 26 31 35 35 36 35 33 33 35 35 34 35 35 35 40 47 49 48 52 56 58 58 58 59 60 63
94 94 95 96 96 96 97 98 100 99 99 98 93 87 85 84 77 70 69 74 77 77 78 76 72 67 63 63 64 63 62 60 59 56 52 50 51 48 44 44 45 44 45 47 45 43 44 43 41 41 43 44 41 40 41 38 29 28 31 32 30 26 24 26 30 32 33 32 30 30 32 33 32 32 36 40 42 45 47 48 50 51 51 52 52 56 61 64
92 93 95 96 93 91 93 96 99 99 99 99 96 91 88 85 82 77 71 70 75 79 76 73 71 65 62 66 71 69 65 61 60 57 52 49 50 48 44 44 46 44 44 45 43 43 45 44 43 45 46 46 46 45 45 41 35 32 31 30 29 26 24 24 24 26 29 29 28 27 27 32 35 36 38 41 42 43 46 50 51 49 49 53 55 56 60 63
90 91 93 93 90 87 90 93 95 97 100 99 98 96 94 89 84 82 75 70 72 74 72 72 72 68 63 64 70 70 64 61 60 58 53 48 47 48 45 44 46 43 43 43 40 43 47 44 42 46 48 47 46 46 46 43 39 37 31 28 29 27 26 25 24 26 28 28 29 28 28 32 38 39 40 39 39 42 46 50 52 50 50 56 62 61 59 59